This is the latest recevied weather packets stored in our database for station/object K0VSC-1. If no packets are shown the sender has not sent any weather packets the latest 10 day(s).
| Time | Temp. | Humidity | Pressure | Rain* | Wind** | Luminosity | Snow |
|---|---|---|---|---|---|---|---|
| 1777466601 | 2.22° C | 69% | 1020.4 hPa | 0.25 mm | - | 178 W/m² | - |
| 1777466301 | 1.67° C | 69% | 1020.5 hPa | 0.25 mm | - | 148 W/m² | - |
| 1777466001 | 1.67° C | 69% | 1020.5 hPa | 0.25 mm | - | 130 W/m² | - |
| 1777465701 | 1.67° C | 69% | 1020.4 hPa | 0.25 mm | - | 121 W/m² | - |
| 1777465401 | 1.67° C | 70% | 1020.3 hPa | 0.25 mm | - | 118 W/m² | - |
| 1777465101 | 1.11° C | 71% | 1020.2 hPa | 0 mm | - | 113 W/m² | - |
| 1777464801 | 1.11° C | 72% | 1020.1 hPa | 0 mm | - | 105 W/m² | - |
| 1777464501 | 1.11° C | 72% | 1020 hPa | 0 mm | - | 90 W/m² | - |
| 1777464201 | 0.56° C | 72% | 1020 hPa | 0 mm | - | 49 W/m² | - |
| 1777463901 | 0.56° C | 72% | 1019.8 hPa | 0 mm | - | 35 W/m² | - |
| 1777463601 | 0.56° C | 72% | 1019.8 hPa | 0 mm | - | 21 W/m² | - |
| 1777463301 | 0.56° C | 72% | 1019.8 hPa | 0 mm | - | 19 W/m² | - |
| 1777463001 | 0.56° C | 72% | 1019.7 hPa | 0 mm | - | 18 W/m² | - |
| 1777462701 | 0.56° C | 72% | 1019.8 hPa | 0 mm | - | 16 W/m² | - |
| 1777462401 | 0.56° C | 72% | 1019.7 hPa | 0 mm | - | 12 W/m² | - |
| 1777462101 | 0.56° C | 73% | 1019.8 hPa | 0 mm | - | 14 W/m² | - |
| 1777461801 | 0.56° C | 73% | 1019.8 hPa | 0 mm | - | 9 W/m² | - |
| 1777461501 | 0.56° C | 74% | 1019.7 hPa | 0 mm | - | 7 W/m² | - |
| 1777461234 | 0.56° C | 74% | 1019.7 hPa | 0 mm | - | 5 W/m² | - |
| 1777461201 | 0.56° C | 74% | 1019.7 hPa | 0 mm | - | 5 W/m² | - |
| 1777460901 | 0.56° C | 75% | 1019.7 hPa | 0 mm | - | 0 W/m² | - |
| 1777460602 | 0° C | 76% | 1019.7 hPa | 0 mm | - | 0 W/m² | - |
| 1777460301 | 0° C | 76% | 1019.7 hPa | 0 mm | - | 0 W/m² | - |
| 1777460001 | 0° C | 77% | 1019.6 hPa | 0 mm | - | 0 W/m² | - |
| 1777459701 | 0° C | 77% | 1019.6 hPa | 0 mm | - | 0 W/m² | - |
* Rain latest hour (hover to see other rain measurements)
** Current wind speed in m/s (hover to see current wind gust speed)